• In Uzbekistan
  • List of Countries
  • For 7 days
  • Water Temperature
  • Satellite Maps
  • Weather Map
  • Weather Widgets
  • user-avatar
    Login

    Hourly Weather Kerns

    Today, 20 February, Monday

    Time Temperature Precipitation Wind Pressure Humidity
    00:00 +27°C° 0.6 mm 1 mps 756 mmHg 92%
    01:00 +27°C° 0.6 mm 1 mps 756 mmHg 90%
    02:00 +27°C° 0.1 mm 1 mps 756 mmHg 90%
    03:00 +27°C° 0.1 mm 1 mps 756 mmHg 91%
    04:00 +27°C° 0 mm 1 mps 755 mmHg 92%
    05:00 +27°C° 0.1 mm 1 mps 755 mmHg 91%
    06:00 +27°C° 0.1 mm 1 mps 756 mmHg 91%
    07:00 +27°C° 0.1 mm 1 mps 756 mmHg 90%
    08:00 +28°C° 0 mm 1 mps 756 mmHg 82%
    09:00 +30°C° 0 mm 1 mps 756 mmHg 73%
    10:00 +32°C° 0 mm 1 mps 757 mmHg 66%
    11:00 +33°C° 0 mm 1 mps 756 mmHg 62%
    12:00 +35°C° 0 mm 2 mps 756 mmHg 58%
    13:00 +36°C° 0 mm 2 mps 756 mmHg 55%
    14:00 +36°C° 0.1 mm 3 mps 756 mmHg 57%
    15:00 +35°C° 0.1 mm 3 mps 755 mmHg 60%
    16:00 +34°C° 0 mm 2 mps 755 mmHg 64%
    17:00 +31°C° 0.2 mm 2 mps 756 mmHg 71%
    18:00 +30°C° 0.2 mm 1 mps 756 mmHg 79%
    19:00 +28°C° 0.2 mm 1 mps 756 mmHg 86%
    20:00 +27°C° 0 mm 1 mps 757 mmHg 89%
    21:00 +27°C° 0 mm 1 mps 757 mmHg 91%
    22:00 +26°C° 0 mm 1 mps 758 mmHg 94%
    23:00 +26°C° 0 mm 1 mps 758 mmHg 95%

    Tomorrow, 21 February, Tuesday

    Time Temperature Precipitation Wind Pressure Humidity
    00:00 +25°C° 0 mm 1 mps 757 mmHg 95%
    01:00 +25°C° 0 mm 1 mps 757 mmHg 96%
    02:00 +25°C° 0 mm 1 mps 757 mmHg 95%
    03:00 +25°C° 0 mm 1 mps 757 mmHg 95%
    04:00 +25°C° 0 mm 1 mps 757 mmHg 95%
    05:00 +26°C° 0 mm 1 mps 757 mmHg 93%
    06:00 +26°C° 0 mm 1 mps 757 mmHg 91%
    07:00 +27°C° 0 mm 1 mps 758 mmHg 89%
    08:00 +29°C° 0 mm 1 mps 758 mmHg 80%
    09:00 +31°C° 0 mm 1 mps 758 mmHg 71%
    10:00 +33°C° 0 mm 1 mps 758 mmHg 62%
    11:00 +33°C° 0.6 mm 1 mps 758 mmHg 63%
    12:00 +35°C° 0.6 mm 2 mps 758 mmHg 64%
    13:00 +35°C° 0.6 mm 2 mps 757 mmHg 64%
    14:00 +34°C° 1.2 mm 3 mps 757 mmHg 68%
    15:00 +34°C° 1.2 mm 3 mps 757 mmHg 71%
    16:00 +33°C° 1.2 mm 3 mps 757 mmHg 75%
    17:00 +31°C° 1.2 mm 3 mps 757 mmHg 81%
    18:00 +29°C° 1.2 mm 2 mps 757 mmHg 88%
    19:00 +28°C° 1.2 mm 2 mps 758 mmHg 94%
    20:00 +27°C° 0.5 mm 2 mps 758 mmHg 96%
    21:00 +27°C° 0.5 mm 2 mps 758 mmHg 97%
    22:00 +26°C° 0.5 mm 1 mps 759 mmHg 98%
    23:00 +26°C° 0.2 mm 1 mps 759 mmHg 98%

    Day after tomorrow, 22 February, Wednesday

    Time Temperature Precipitation Wind Pressure Humidity
    00:00 +26°C° 0.2 mm 1 mps 758 mmHg 98%
    01:00 +26°C° 0.2 mm 1 mps 758 mmHg 97%
    02:00 +26°C° 0.3 mm 1 mps 758 mmHg 97%
    03:00 +26°C° 0.3 mm 1 mps 758 mmHg 97%
    04:00 +26°C° 0.3 mm 2 mps 758 mmHg 97%
    05:00 +26°C° 0.4 mm 2 mps 758 mmHg 96%
    06:00 +26°C° 0.4 mm 2 mps 758 mmHg 95%
    07:00 +26°C° 0.4 mm 2 mps 759 mmHg 94%
    08:00 +28°C° 0 mm 2 mps 759 mmHg 87%
    09:00 +29°C° 0 mm 2 mps 759 mmHg 80%
    10:00 +31°C° 0 mm 2 mps 759 mmHg 73%
    11:00 +33°C° 0 mm 3 mps 759 mmHg 69%
    12:00 +34°C° 0 mm 3 mps 758 mmHg 65%
    13:00 +34°C° 0 mm 3 mps 758 mmHg 61%
    14:00 +34°C° 0.1 mm 3 mps 757 mmHg 63%
    15:00 +34°C° 0.1 mm 3 mps 757 mmHg 65%
    16:00 +33°C° 0.1 mm 4 mps 756 mmHg 67%
    17:00 +32°C° 0.1 mm 4 mps 757 mmHg 75%
    18:00 +30°C° 0.1 mm 3 mps 757 mmHg 83%
    19:00 +28°C° 0.1 mm 3 mps 757 mmHg 91%
    20:00 +28°C° 0.7 mm 3 mps 758 mmHg 93%
    21:00 +27°C° 0.7 mm 3 mps 758 mmHg 94%
    22:00 +27°C° 0.7 mm 3 mps 759 mmHg 96%
    23:00 +27°C° 0.4 mm 3 mps 759 mmHg 97%

    23 February, Thursday

    Time Temperature Precipitation Wind Pressure Humidity
    00:00 +27°C° 0.4 mm 3 mps 758 mmHg 97%
    01:00 +27°C° 0.4 mm 3 mps 758 mmHg 97%
    02:00 +26°C° 0.3 mm 3 mps 758 mmHg 97%
    03:00 +26°C° 0.3 mm 3 mps 757 mmHg 97%
    04:00 +26°C° 0.3 mm 3 mps 757 mmHg 97%
    05:00 +26°C° 0.5 mm 3 mps 758 mmHg 96%
    06:00 +26°C° 0.5 mm 3 mps 758 mmHg 95%
    07:00 +27°C° 0.5 mm 3 mps 758 mmHg 94%
    08:00 +29°C° 0.3 mm 3 mps 759 mmHg 84%
    09:00 +30°C° 0.3 mm 3 mps 759 mmHg 75%
    10:00 +33°C° 0.3 mm 4 mps 759 mmHg 66%
    11:00 +34°C° 0.3 mm 4 mps 759 mmHg 66%
    12:00 +34°C° 0.3 mm 4 mps 758 mmHg 67%
    13:00 +34°C° 0.3 mm 4 mps 758 mmHg 68%
    14:00 +34°C° 0.2 mm 4 mps 757 mmHg 68%
    15:00 +34°C° 0.2 mm 5 mps 757 mmHg 68%
    16:00 +34°C° 0.2 mm 5 mps 756 mmHg 68%
    17:00 +32°C° 0 mm 4 mps 757 mmHg 75%
    18:00 +30°C° 0 mm 4 mps 757 mmHg 81%
    19:00 +28°C° 0 mm 4 mps 757 mmHg 88%
    20:00 +28°C° 0.2 mm 4 mps 758 mmHg 90%
    21:00 +27°C° 0.2 mm 4 mps 758 mmHg 93%
    22:00 +27°C° 0.2 mm 4 mps 759 mmHg 96%
    23:00 +26°C° 0.4 mm 4 mps 759 mmHg 96%

    24 February, Friday

    Time Temperature Precipitation Wind Pressure Humidity
    00:00 +26°C° 0.4 mm 3 mps 758 mmHg 96%
    01:00 +26°C° 0.4 mm 3 mps 758 mmHg 96%
    02:00 +26°C° 0.4 mm 3 mps 758 mmHg 96%
    03:00 +26°C° 0.4 mm 4 mps 757 mmHg 96%
    04:00 +26°C° 0.4 mm 4 mps 757 mmHg 96%
    05:00 +26°C° 0.2 mm 4 mps 758 mmHg 94%
    06:00 +26°C° 0.2 mm 4 mps 758 mmHg 93%
    07:00 +26°C° 0.2 mm 4 mps 758 mmHg 91%
    08:00 +29°C° 0 mm 4 mps 759 mmHg 81%
    09:00 +32°C° 0 mm 4 mps 759 mmHg 71%
    10:00 +34°C° 0 mm 4 mps 759 mmHg 61%
    11:00 +34°C° 0.1 mm 4 mps 758 mmHg 60%
    12:00 +35°C° 0.1 mm 5 mps 758 mmHg 60%
    13:00 +35°C° 0.1 mm 5 mps 757 mmHg 59%
    14:00 +35°C° 0.2 mm 4 mps 757 mmHg 63%
    15:00 +34°C° 0.2 mm 4 mps 756 mmHg 67%
    16:00 +33°C° 0.2 mm 4 mps 756 mmHg 71%
    17:00 +32°C° 0.4 mm 4 mps 757 mmHg 78%
    18:00 +29°C° 0.4 mm 4 mps 757 mmHg 85%
    19:00 +28°C° 0.4 mm 3 mps 758 mmHg 91%
    20:00 +27°C° 0.5 mm 3 mps 758 mmHg 93%
    21:00 +27°C° 0.5 mm 3 mps 758 mmHg 94%
    22:00 +27°C° 0.5 mm 3 mps 759 mmHg 95%
    23:00 +26°C° 0.5 mm 3 mps 758 mmHg 94%

    25 February, Saturday

    Time Temperature Precipitation Wind Pressure Humidity
    00:00 +26°C° 0.5 mm 3 mps 758 mmHg 93%
    01:00 +26°C° 0.5 mm 3 mps 757 mmHg 92%
    02:00 +26°C° 0.5 mm 3 mps 757 mmHg 92%
    03:00 +26°C° 0.5 mm 3 mps 757 mmHg 92%
    04:00 +26°C° 0.5 mm 3 mps 756 mmHg 91%
    05:00 +26°C° 0.3 mm 3 mps 757 mmHg 90%
    06:00 +26°C° 0.3 mm 3 mps 757 mmHg 89%
    07:00 +26°C° 0.3 mm 3 mps 758 mmHg 88%
    08:00 +28°C° 0.3 mm 3 mps 758 mmHg 79%
    09:00 +30°C° 0.3 mm 4 mps 758 mmHg 71%
    10:00 +33°C° 0.3 mm 4 mps 758 mmHg 62%
    11:00 +33°C° 1 mm 4 mps 757 mmHg 66%
    12:00 +33°C° 1 mm 4 mps 757 mmHg 69%
    13:00 +33°C° 1 mm 5 mps 756 mmHg 73%
    14:00 +32°C° 0.9 mm 4 mps 756 mmHg 76%
    15:00 +32°C° 0.9 mm 4 mps 755 mmHg 80%
    16:00 +30°C° 0.9 mm 4 mps 755 mmHg 84%
    17:00 +29°C° 1.3 mm 4 mps 756 mmHg 86%
    18:00 +28°C° 1.3 mm 4 mps 756 mmHg 89%
    19:00 +27°C° 1.3 mm 4 mps 757 mmHg 92%
    20:00 +27°C° 1.8 mm 4 mps 757 mmHg 93%
    21:00 +26°C° 1.8 mm 4 mps 757 mmHg 94%
    22:00 +26°C° 1.8 mm 4 mps 757 mmHg 95%
    23:00 +26°C° 2.2 mm 4 mps 757 mmHg 96%
    Show more